Location: Aureilhan
(43.2434°N, 0.0958°E)
Time: 20:13:53
(UTC+00:00)

Daily predictions for brighter satellites

Satellite Brightness Start Highest point End
(mag) Time Altitude Azimuth Time Altitude Azimuth Time Altitude Azimuth
Cosmos 1814 Rocket 4.0 19:33:16 10° NNW 19:38:32 88° ENE 19:43:42 10° SSE
Meteor 2-15 4.5 19:34:12 10° S 19:40:15 85° E 19:46:22 10° N
SL-4 R/B 2.5 19:36:13 10° NW 19:40:31 63° NNE 19:45:07 10° ESE
X-37B 1.0 19:40:12 10° W 19:43:22 63° N 19:46:33 10° ENE
Cosmos 540 Rocket 4.5 19:41:16 10° NNW 19:46:09 47° WSW 19:51:01 10° S
IRS-1A Rocket 4.5 19:44:51 10° SSE 19:50:30 63° ENE 19:56:18 10° N
SPOT 3 Rocket 4.4 19:49:23 10° SE 19:53:56 33° ENE 19:58:31 10° N
CZ-4 R/B 4.4 19:52:39 10° SW 19:54:52 14° W 19:57:05 10° WNW
ERS-2 3.0 19:52:03 10° N 19:55:37 53° WNW 19:59:07 10° SSW
Cosmos 1844 4.1 19:50:19 10° S 19:55:41 43° ESE 20:01:02 10° NE
Resurs 1-3 3.8 19:51:42 10° SSE 19:55:58 55° ENE 20:00:17 10° N
Cosmos 968 Rocket 3.5 19:51:23 10° S 19:56:32 60° ESE 20:01:41 10° NNE
Cosmos 1743 Rocket 3.5 19:53:17 10° N 19:57:37 70° E 20:01:57 10° SSE
BREEZE-M DEB (TANK) 4.0 19:53:27 10° WNW 19:57:45 74° N 20:04:59 10° E
ATLAS 5 CENTAUR R/B 3.4 19:55:02 10° NNW 20:00:00 33° NE 20:05:41 10° ESE
BREEZE M DEB (TANK) 4.1 19:59:40 10° WSW 20:03:05 67° NNW 20:13:33 10° ENE
Cosmos 1486 Rocket 4.1 19:58:53 10° S 20:04:04 56° ESE 20:09:18 10° NNE
Intercosmos 25 Rocket 4.1 20:00:25 10° N 20:06:58 65° ENE 20:11:02 10° SSE
IGS 5A 4.2 20:04:31 12° SE 20:07:51 35° ENE 20:11:39 10° N
Cosmos 1500 Rocket 3.6 20:05:11 10° N 20:09:36 85° W 20:13:57 10° S
Cosmos 2221 3.6 20:05:43 10° SSW 20:09:51 48° WNW 20:14:04 10° N
S3M 4.2 20:04:21 10° SSE 20:10:33 56° E 20:16:44 10° NNE
BREEZE-M R/B 1.6 20:08:35 10° WSW 20:11:28 79° SSE 20:13:53 10° ENE
USA 186 3.8 20:10:16 10° SSW 20:12:20 21° W 20:14:20 10° NW
FALCON 9 DEB 3.3 20:15:14 10° WNW 20:18:11 50° SW 20:20:03 19° SSE
Cosmos 1933 3.7 20:17:12 10° SSE 20:21:02 45° E 20:24:55 10° NNE
USA 245 4.3 20:23:48 13° ENE 20:23:48 13° ENE 20:24:50 10° NE
FALCON 9 DEB 3.7 20:21:33 10° WNW 20:24:24 40° SW 20:26:04 20° SSE
Cosmos 1242 Rocket 3.0 20:24:03 16° SSE 20:26:34 41° E 20:29:57 10° NNE
OBJECT-B 2.9 20:24:09 10° SSW 20:26:55 26° W 20:29:44 10° NW
Cosmos 1553 Rocket 4.2 20:23:06 10° SSW 20:29:11 74° W 20:35:25 10° N
Cosmos 1437 Rocket 3.0 20:26:40 10° SSW 20:30:29 71° W 20:34:25 10° N
BREEZE M DEB (TANK) 4.0 20:25:33 10° WNW 20:31:19 33° N 20:33:47 10° ENE
FALCON 9 DEB 3.5 20:30:21 10° WNW 20:33:17 44° SW 20:34:36 26° SSE
Resurs 01 Rocket 1.6 20:29:42 15° SSE 20:33:19 80° ENE 20:37:46 10° N
Spot 2 Rocket 4.3 20:34:12 20° ESE 20:37:02 36° ENE 20:41:37 10° N
DELTA 2 R/B (1) 3.8 20:33:04 10° W 20:38:29 54° S 20:41:51 22° ESE
Sich 1 2.9 20:35:34 10° N 20:39:54 83° E 20:43:00 19° S
Cosmos 2082 Rocket 4.3 20:39:44 10° N 20:42:49 15° NE 20:45:53 10° ENE
Meteor 1-20 Rocket 4.1 20:37:22 10° N 20:43:02 80° E 20:47:11 18° SSE
BREEZE-M DEB (TANK) 3.9 20:42:46 10° W 20:44:38 20° SSW 20:45:33 17° S
Cosmos 1782 3.1 20:43:16 26° SSE 20:45:07 45° E 20:48:57 10° NNE
CZ-4C R/B 3.8 20:38:44 10° NNW 20:45:20 39° NE 20:51:18 16° ESE
Cosmos 1500 4.4 20:43:18 10° NNE 20:46:29 25° ENE 20:47:10 24° E
ERS-1 Rocket 3.9 20:50:52 24° ESE 20:52:59 33° ENE 20:57:28 10° N
Cosmos 1503 Rocket 3.9 20:49:42 10° SSW 20:54:52 89° ESE 21:00:06 10° NNE
SPOT 5 3.9 20:52:52 24° ESE 20:54:59 34° ENE 20:59:39 10° N
Intercosmos 24 4.5 20:53:29 10° SSW 20:57:22 52° W 21:00:51 10° N
Cosmos 1151 Rocket 2.9 20:58:03 25° S 21:00:30 72° E 21:04:53 10° NNE
Cosmos 1777 Rocket 4.4 20:58:39 29° SE 21:00:32 39° ESE 21:05:21 10° NE
USA 290 2.4 20:58:56 10° NNW 21:02:09 67° WSW 21:02:58 45° S
Terra 3.0 21:02:22 24° E 21:03:48 28° ENE 21:07:51 10° N
Cosmos 1602 3.6 21:01:05 10° N 21:04:57 89° E 21:06:20 39° S
Cosmos 2278 Rocket 2.8 21:05:44 31° SE 21:07:01 34° ESE 21:12:05 10° NE
CZ-2C R/B 4.0 21:09:06 10° N 21:13:33 66° WNW 21:17:35 13° SSW
Cosmos 1515 Rocket 3.8 21:17:35 45° ESE 21:18:15 49° E 21:22:31 10° NNE
Cosmos 1844 Rocket 4.3 21:14:19 10° WSW 21:19:23 35° NW 21:24:30 10° N
SPOT 1/Viking Rocket 3.7 21:16:47 28° S 21:19:32 72° WSW 21:24:45 10° NNW
Cosmos 2084 3.2 21:17:53 31° SSW 21:19:42 68° SE 21:23:55 10° NE
SL-4 R/B 3.5 21:16:06 10° WNW 21:20:01 30° SW 21:21:08 26° SSW
X-37B 0.6 21:16:58 10° WNW 21:20:09 79° N 21:20:09 79° N
ARIANE 5 R/B 2.5 21:20:40 46° SSE 21:21:56 87° ENE 21:26:18 10° NNW
SWARM A 4.2 21:19:54 10° N 21:23:01 67° ENE 21:23:01 67° ENE
Cosmos 1437 3.1 21:25:46 51° N 21:25:46 51° N 21:28:01 10° N
JB-3 4.1 21:23:17 10° NNE 21:27:13 87° ESE 21:27:56 58° S
Cosmos 1633 Rocket 3.5 21:25:27 10° NNW 21:29:46 58° W 21:31:23 35° SSW
Cosmos 1812 2.5 21:31:31 72° ESE 21:31:38 73° E 21:35:30 10° NNE
Cosmos 1328 Rocket 4.2 21:36:50 27° SW 21:39:02 54° W 21:43:24 10° N
Cosmos 1470 Rocket 3.6 21:34:33 10° N 21:39:03 82° W 21:39:56 57° S
Cosmos 2184 Rocket 4.1 21:33:20 10° N 21:39:29 58° ENE 21:41:19 42° SE
Meteor 1-5 Rocket 4.0 21:35:12 10° N 21:40:38 78° E 21:42:00 51° SSE
ATLAS 5 CENTAUR R/B 2.7 21:39:15 10° NW 21:44:57 57° WSW 21:47:13 38° S
CARTOSAT-1 3.9 21:44:08 46° SSW 21:45:03 57° W 21:49:19 10° NNW
Cosmos 2074 Rocket 4.0 21:41:11 10° N 21:47:29 70° E 21:49:23 46° SSE
NOSS 3-3 (A) 4.2 21:44:57 10° SW 21:50:37 66° NW 21:57:08 10° NNE
NOSS 3-3 (C) 4.2 21:45:03 10° SW 21:50:44 66° NW 21:57:15 10° NNE
Cosmos 1666 2.9 21:48:56 10° N 21:52:11 65° NNE 21:52:11 65° NNE
Nadezhda 1 Rocket 4.2 21:51:52 45° SE 21:53:09 53° E 21:59:13 10° NNE
Cosmos 1933 Rocket 3.3 21:49:15 10° N 21:53:37 88° W 21:53:49 81° S
Cosmos 1833 Rocket 2.6 21:48:47 10° NNW 21:54:28 81° ENE 21:55:42 56° SE
ATLAS 2AS CENTAUR R/B 3.9 21:49:48 10° NNW 21:56:32 35° NE 22:00:31 20° E
BREEZE-M DEB (TANK) 4.2 21:57:17 10° NW 21:57:58 17° NNW 21:57:58 17° NNW
Cosmos 1538 Rocket 3.9 21:57:45 10° NNW 22:03:10 89° ENE 22:03:56 67° SSE
Iridium 4 Rocket 3.8 22:01:47 46° SSW 22:03:34 76° W 22:09:29 10° N
USA 305 4.0 21:59:56 10° NW 22:03:57 38° NNE 22:04:41 35° NE
Cosmos 1610 Rocket 4.4 22:03:25 10° N 22:09:32 66° E 22:10:38 55° SE
SJ 16-02 1.4 22:15:15 73° WNW 22:15:15 73° WNW 22:19:42 10° NNE
Cosmos 158 Rocket 3.8 22:10:32 10° NNW 22:15:24 69° ENE 22:15:27 69° ENE
Cosmos 2228 Rocket 3.1 22:17:34 75° N 22:17:34 75° N 22:21:39 10° N
Meteor 1-27 Rocket 3.6 22:18:37 67° SSE 22:19:20 76° E 22:25:14 10° NNE
Cosmos 1680 Rocket 4.1 22:15:57 10° N 22:21:02 44° ENE 22:21:27 43° ENE
USA 306 3.6 22:19:00 10° NW 22:23:05 48° NNE 22:23:05 48° NNE
COSMOS 2406 3.4 22:19:34 10° NNW 22:25:08 58° WSW 22:25:47 54° SW
Cosmos 2082 Rocket 2.0 22:22:14 10° NNW 22:27:52 78° ENE 22:28:19 72° ESE
ERS-1 Rocket 4.2 22:30:51 28° WSW 22:31:45 30° W 22:36:11 10° NW
Milstar 3 4.4 22:22:52 10° WSW 22:29:42 27° SSW 22:29:42 27° SSW
SPOT 5 4.2 22:32:05 29° WSW 22:33:01 31° W 22:37:35 10° NNW
CZ-4C R/B 3.2 22:27:01 10° NW 22:34:23 63° WSW 22:36:28 49° S
Cosmos 1271 Rocket 4.0 22:35:28 38° WNW 22:35:28 38° WNW 22:39:00 10° N
Terra 3.0 22:41:15 33° WSW 22:41:26 33° W 22:45:45 10° NNW
Meteor 1-11 Rocket 4.1 22:38:34 10° NNW 22:44:26 59° W 22:45:14 54° SW
Cosmos 1295 Rocket 4.4 22:38:28 10° N 22:44:50 78° W 22:45:45 65° SSW
USA 307 3.8 22:44:18 10° NW 22:47:31 47° NNW 22:47:31 47° NNW
Cosmos 1340 Rocket 3.9 22:46:50 10° N 22:49:40 43° N 22:49:40 43° N
Cosmos 2278 Rocket 3.5 22:47:29 19° WSW 22:51:02 37° WNW 22:56:16 10° N
Spot 4 4.1 22:53:27 64° NNE 22:53:27 64° NNE 22:57:47 10° N
Cosmos 923 Rocket 4.1 22:50:59 10° NNW 22:55:53 70° WNW 22:55:53 70° WNW
Cosmos 1898 Rocket 3.6 22:57:39 71° NE 22:57:39 71° NE 23:02:27 10° NNE
Cosmos 1536 4.3 22:56:48 10° NNW 22:59:30 33° NW 22:59:30 33° NW
Cosmos 2369 Rocket 3.6 23:03:27 25° ENE 23:03:27 25° ENE 23:06:40 10° NE
USA 308 4.1 22:57:45 10° NW 23:00:30 38° NW 23:00:30 38° NW
Meteor 2-9 Rocket 4.3 23:04:53 10° N 23:10:35 65° ENE 23:10:35 65° ENE
Cosmos 1943 Rocket 2.5 23:11:54 57° ENE 23:11:54 57° ENE 23:16:38 10° NNE
SL-8 Rocket 3.9 23:04:50 10° N 23:11:13 81° E 23:11:34 78° SE
ALOS 2 3.5 23:16:05 45° NNE 23:16:05 45° NNE 23:19:18 10° N
DNEPR-1 R/B 4.4 23:19:56 58° ENE 23:19:56 58° ENE 23:24:03 10° NE
Meteor 2-4 Rocket 4.3 23:20:31 47° ENE 23:20:31 47° ENE 23:25:27 10° NNE
Cosmos 44 3.7 23:15:46 10° NNW 23:20:48 67° NNE 23:20:48 67° NNE
Meteor 1-18 Rocket 4.2 23:33:04 80° NNW 23:33:04 80° NNW 23:38:24 10° N
NOSS 3-4 (A) 4.2 23:27:23 10° NW 23:34:13 48° WSW 23:34:27 48° WSW
NOSS 3-4 (C) 4.2 23:27:29 10° NW 23:34:19 49° WSW 23:34:34 49° WSW
Cosmos 1238 Rocket 4.0 23:30:35 10° NNW 23:36:39 60° W 23:36:39 60° W
SL-24 R/B - RUBIN 2 4.4 23:33:09 10° NW 23:37:29 56° NW 23:37:29 56° NW
SeaSat 1 3.5 23:35:01 10° NE 23:38:19 38° ENE 23:38:19 38° ENE
Cosmos 864 Rocket 4.3 23:33:46 10° N 23:39:56 78° W 23:39:58 78° W
Cosmos 1959 Rocket 4.4 23:36:35 10° NNW 23:42:48 72° W 23:42:51 72° W
USA 215 3.4 23:42:20 43° ESE 23:44:33 69° NE 23:51:03 10° NW
Cosmos 2297 4.2 23:45:51 49° W 23:46:22 51° WNW 23:51:55 10° NNE
ATLAS 2AS CENTAUR R/B 2.7 23:40:47 10° NW 23:47:56 63° WSW 23:47:56 63° WSW
Cosmos 2181 Rocket 4.4 23:52:11 50° W 23:52:39 51° WNW 23:58:39 10° N
